RH
13 17 17 17 16 15 14 14 15 12 9 11 13 13 11 9 9 10 13 17 19 20 19 20 27 28 30 35 37 44 53 62 60 59 63 63 60 61 65 57 59 60 60 63
14 16 14 13 14 13 11 13 13 12 11 15 13 12 10 8 10 16 17 19 20 20 20 22 23 27 34 34 40 38 45 56 60 62 69 68 66 59 51 57 60 60 63 63
11 10 10 11 11 13 13 15 14 14 13 11 11 11 9 7 12 18 19 20 19 21 22 22 22 27 29 32 37 36 40 50 62 73 71 75 76 73 64 50 60 59 62 65
12 11 15 15 13 14 22 12 13 15 16 18 12 17 12 8 16 20 20 21 21 21 19 18 19 22 24 28 34 34 37 47 60 73 78 86 88 91 82 69 63 55 63 64
15 17 16 16 16 14 16 16 18 15 13 15 11 11 10 10 17 22 19 19 20 20 21 21 21 20 20 25 28 39 38 41 70 75 80 82 90 87 84 81 74 63 68 66
14 11 11 18 14 12 12 16 11 10 11 16 8 9 7 6 8 14 18 18 21 21 21 22 22 22 22 24 32 36 40 40 73 79 81 86 92 94 90 89 91 87 73 68
9 8 16 17 14 8 10 12 16 16 16 12 9 11 11 8 8 14 18 21 23 23 25 23 21 22 25 28 31 32 37 42 76 82 86 88 92 94 92 94 96 96 96 97
11 15 17 12 12 13 13 12 19 24 20 18 11 13 9 11 20 20 20 22 23 24 24 20 19 25 24 27 32 38 35 37 74 81 85 86 90 94 94 94 96 96 97 98
14 11 8 6 7 10 12 14 12 19 18 21 14 12 8 14 21 31 33 27 28 22 21 18 17 26 28 28 34 42 37 37 68 81 87 89 90 92 94 94 94 95 94 94
15 21 11 8 12 10 13 10 17 15 30 28 15 16 12 18 18 17 25 20 19 18 19 18 18 26 26 29 35 40 40 48 62 80 87 90 90 89 90 92 94 94 92 93
16 20 18 14 13 12 11 12 15 18 23 36 38 23 16 22 19 19 19 18 19 20 20 18 19 24 25 30 32 36 48 63 72 87 87 91 92 88 88 90 91 93 93 92
22 30 28 19 12 10 12 16 22 32 35 29 32 37 18 20 18 18 18 17 19 22 21 22 24 25 27 32 34 39 68 79 89 89 90 91 89 87 86 86 87 88 91 91
28 23 26 13 15 14 19 16 16 18 24 31 44 35 14 17 17 16 18 20 22 22 22 31 28 26 26 31 39 42 61 77 86 86 90 91 90 90 87 85 85 85 86 87
37 27 31 34 27 22 24 18 16 19 29 28 28 25 20 19 19 18 19 19 20 21 31 33 32 30 30 33 41 47 63 77 86 86 89 92 92 91 90 86 85 85 84 87
32 42 36 29 24 24 23 20 17 18 18 25 23 21 18 19 21 21 19 18 16 20 36 34 32 32 29 39 44 55 67 80 84 87 90 93 92 90 90 92 90 89 89 89
31 45 41 41 26 20 23 23 23 20 19 19 19 22 18 17 16 17 17 17 16 30 35 30 28 27 30 41 47 64 75 83 84 88 91 93 94 95 96 98 96 90 90 90
36 44 50 49 28 33 43 26 23 22 20 21 28 26 22 26 36 43 24 21 26 32 29 24 22 26 45 52 64 74 78 80 85 93 95 97 97 99 99 98 96 97 98 91
40 41 44 58 47 68 32 23 19 27 26 26 25 32 34 37 37 40 50 68 52 38 36 30 25 54 61 60 68 75 76 82 94 97 98 98 98 99 98 97 97 96 94 96
32 40 69 72 65 47 32 24 29 36 39 31 54 52 48 46 46 47 37 59 74 77 76 55 43 54 62 69 72 78 87 95 95 98 99 99 99 98 97 96 95 90 91 90
26 34 48 95 77 70 34 27 25 30 49 56 53 52 53 54 89 63 53 51 50 56 62 73 51 58 68 75 79 89 95 95 98 99 99 97 97 98 97 98 98 85 81 74
38 40 56 62 81 61 31 28 29 58 68 54 50 55 61 72 69 65 56 64 56 50 55 56 62 69 75 80 86 95 96 98 95 94 92 94 92 84 80 79 75 69 63 63
36 50 56 51 69 72 31 33 65 61 55 55 58 60 70 74 74 67 55 56 73 50 63 62 72 79 81 79 85 95 96 98 93 92 91 92 86 76 73 72 67 63 65 66
48 37 45 44 45 37 34 48 42 48 58 62 67 72 93 85 79 63 61 71 85 70 68 71 81 84 83 89 89 92 99 93 93 91 88 82 76 69 68 74 72 73 68 73
36 31 48 51 37 35 43 39 47 51 63 65 69 94 69 74 62 65 72 94 86 89 73 75 79 83 92 92 93 96 97 92 82 82 78 73 69 70 67 67 68 73 79 80
47 44 48 50 42 53 45 52 56 61 67 74 79 59 55 65 72 61 86 94 90 93 91 80 86 91 96 96 97 97 96 88 80 73 68 66 63 64 67 72 78 76 75 72
43 46 58 68 65 79 71 58 57 73 79 75 82 56 50 71 94 94 95 94 96 96 84 88 91 93 97 95 94 91 82 63 61 60 57 60 60 62 64 83 81 65 63 54
Wind_Speed
7 6 11 11 9 11 14 15 18 18 18 18 17 20 21 19 20 17 11 14 13 12 12 13 16 15 15 13 16 16 14 14 13 12 11 8 6 9 10 11 17 14 12 14
6 11 11 9 12 14 15 17 17 17 17 18 21 24 22 22 4 10 9 10 10 9 12 14 14 13 11 13 13 16 17 13 11 11 12 12 10 9 8 11 14 15 14 15
10 11 11 8 10 11 12 13 16 19 20 19 22 20 21 20 8 13 12 8 8 12 11 11 12 11 11 12 13 15 19 14 12 16 11 11 12 13 9 11 8 12 15 15
8 8 7 9 10 11 11 17 18 19 19 15 16 21 18 18 15 14 11 7 9 9 10 10 11 12 12 12 12 15 18 15 14 17 14 15 11 13 15 11 11 13 15 16
6 3 7 9 13 13 15 14 16 19 19 20 16 12 12 10 15 11 7 7 7 8 8 10 11 13 14 14 14 12 16 18 14 15 16 13 13 10 12 14 15 16 10 15
11 2 2 7 12 12 10 14 19 18 14 12 17 15 11 11 14 1 10 7 8 9 11 12 14 15 15 15 14 13 14 18 13 14 15 15 15 16 13 14 13 12 11 7
11 3 10 7 12 14 18 14 8 4 6 9 22 14 13 18 12 11 10 10 10 10 11 12 14 16 15 16 16 16 19 19 14 15 14 14 14 13 14 13 9 11 11 9
6 1 5 7 7 8 14 6 5 7 9 16 18 10 9 16 17 13 9 8 10 11 8 8 10 9 13 15 15 17 20 21 13 13 13 12 12 8 8 12 11 9 9 10
6 3 10 8 6 5 7 8 11 9 14 13 11 22 16 19 17 18 17 15 12 14 23 24 20 11 11 12 13 14 19 20 12 12 9 10 10 11 9 11 10 10 13 13
3 7 8 4 6 11 11 7 6 5 6 10 11 26 12 17 21 23 10 18 21 19 17 17 17 12 11 11 11 14 15 18 18 13 10 8 11 10 11 11 14 12 15 17
6 4 5 13 13 11 7 8 8 10 10 12 13 16 7 26 26 19 24 20 22 21 18 18 15 8 9 11 13 15 18 22 19 9 9 9 9 11 10 11 13 14 16 19
8 5 6 17 18 6 7 6 6 6 13 11 13 21 23 21 20 22 23 24 22 20 21 18 17 14 12 12 13 14 17 20 14 10 9 9 10 11 11 12 13 14 16 17
9 3 7 2 8 7 4 12 17 16 14 18 16 14 13 20 20 20 21 17 19 20 17 17 15 13 12 10 12 13 15 15 12 8 8 9 10 10 11 13 15 15 16 16
3 5 8 9 14 17 20 19 18 17 12 16 20 25 21 23 22 18 17 19 15 18 13 10 8 11 12 12 12 13 15 12 11 8 8 8 9 11 11 11 13 14 16 16
3 6 10 14 18 20 21 21 20 18 18 18 22 26 21 20 21 22 19 18 17 12 11 10 11 11 11 8 12 14 14 12 10 10 10 11 11 12 13 14 13 15 16 15
4 7 12 17 19 16 18 22 21 15 15 17 21 25 20 21 22 21 18 19 20 8 6 9 14 11 10 14 13 15 13 11 10 10 11 11 11 11 11 11 12 13 15 15
6 5 7 6 13 18 10 9 15 18 16 18 20 22 23 23 26 28 25 18 11 6 7 10 11 9 16 15 14 14 11 10 10 11 10 10 10 10 11 12 11 14 13 13
5 6 5 9 12 4 11 19 11 20 19 22 23 21 23 24 23 24 24 27 27 23 19 18 14 15 12 13 12 12 11 10 10 10 10 10 10 11 12 12 13 13 11 13
10 6 4 3 9 16 14 12 19 19 25 17 23 25 25 25 26 21 18 7 12 13 23 23 9 13 14 12 13 14 12 10 10 12 11 11 11 11 12 13 11 10 8 8
8 7 5 2 7 5 9 21 20 21 21 26 27 25 25 25 18 17 22 21 16 15 14 26 8 14 13 12 14 14 11 10 10 11 11 12 12 12 11 9 7 7 8 11
7 6 10 9 8 9 12 22 20 14 19 27 24 24 25 23 17 25 23 21 24 13 20 9 16 14 13 13 13 13 10 10 11 12 13 12 11 10 9 8 7 8 9 8
3 3 4 6 8 10 22 21 15 16 20 23 27 25 26 26 26 23 22 19 20 15 8 16 15 15 13 13 12 11 11 10 11 12 12 11 11 10 9 11 11 11 10 11
2 5 4 5 7 18 14 17 17 20 22 24 26 26 25 26 25 21 17 14 18 12 11 15 16 15 13 13 12 11 11 10 10 10 10 12 12 12 13 13 13 10 11 10
7 9 6 10 4 14 17 18 21 21 21 23 23 23 20 20 18 16 13 12 11 11 13 14 16 15 15 13 13 11 9 7 8 10 12 11 12 12 11 9 9 9 9 9
8 9 8 12 14 17 13 20 20 20 21 22 21 16 16 18 18 13 11 10 14 12 13 13 14 14 14 12 11 8 5 5 7 8 9 8 7 8 9 9 7 7 8 10
6 7 4 3 9 8 14 17 16 19 19 19 20 16 14 14 12 9 12 13 12 11 14 14 15 15 13 11 9 6 5 8 8 9 8 8 8 8 7 6 6 11 11 17
Wind_Direction
310 284 284 14 354 330 321 313 307 300 309 319 310 309 304 298 282 283 61 57 48 35 21 24 32 26 5 16 1 344 351 2 350 343 336 329 307 253 246 233 239 231 226 214
260 256 36 2 330 320 308 296 299 313 325 331 312 295 287 281 311 77 67 70 54 36 29 25 23 18 1 7 3 351 348 358 358 353 339 325 304 296 294 259 241 227 223 224
303 308 16 350 320 309 302 306 328 325 317 303 290 297 309 305 141 104 84 69 56 47 37 20 16 12 1 12 3 1 343 349 8 4 342 334 326 311 288 289 240 225 221 221
292 27 357 336 311 344 321 337 322 313 311 306 316 296 299 303 126 109 96 75 48 42 32 19 19 6 358 9 5 356 344 347 15 2 348 340 328 324 321 287 284 267 217 219
325 325 356 309 359 338 302 330 301 298 294 294 296 273 299 357 60 105 107 89 61 42 30 13 17 7 4 5 359 358 345 337 23 6 347 343 332 318 313 309 288 277 231 221
269 351 187 15 320 291 283 293 313 288 262 264 278 347 326 344 350 37 133 92 57 32 21 4 5 6 1 357 351 354 348 335 28 10 350 344 335 331 335 337 343 325 302 260
325 307 108 26 332 337 2 335 313 316 309 300 350 330 298 317 336 19 54 57 39 17 21 4 359 360 358 353 348 351 348 339 25 10 356 349 342 344 345 343 353 2 347 339
318 226 34 27 2 332 311 296 303 303 327 311 314 259 305 351 62 56 50 35 13 354 348 350 358 357 1 353 356 349 347 335 24 7 355 354 349 354 5 356 359 14 4 350
334 248 5 303 13 334 340 302 356 298 285 280 279 290 330 33 53 28 359 340 341 328 352 351 355 6 3 354 359 358 347 335 9 3 5 3 355 5 6 17 18 12 27 8
31 294 309 359 333 260 224 296 320 307 302 298 307 304 288 23 355 348 317 340 340 341 326 331 338 354 2 4 2 359 346 357 353 355 0 4 6 18 7 13 25 25 39 30
314 259 291 298 280 300 324 274 319 319 292 288 300 279 336 337 334 332 329 333 329 324 324 324 322 340 11 11 10 360 8 356 342 18 14 21 4 35 20 28 28 22 33 55
39 314 290 279 281 319 20 311 287 282 299 290 297 283 297 299 329 334 331 328 334 343 333 347 2 10 10 11 11 15 28 10 7 12 13 19 33 35 27 33 40 37 41 41
4 282 307 328 113 132 256 341 320 303 297 285 284 273 318 320 323 326 316 335 332 322 329 5 6 1 352 358 15 15 28 6 346 8 19 33 46 40 42 37 41 39 39 39
355 276 279 279 300 300 299 304 300 292 280 286 275 294 311 315 314 319 326 324 318 318 16 1 328 353 349 3 23 23 23 5 348 6 32 36 43 48 50 50 49 50 48 44
252 275 299 294 296 299 293 291 294 293 292 289 301 294 305 318 327 322 314 301 320 334 15 348 325 347 336 18 19 35 23 4 5 21 31 40 43 51 54 56 45 51 52 48
257 287 308 294 285 287 316 300 288 285 305 304 307 301 311 316 302 292 314 319 317 18 360 336 340 330 359 29 26 34 25 22 32 36 37 37 49 55 54 55 49 57 55 50
293 301 325 277 334 317 282 11 329 313 321 316 306 319 331 344 359 347 330 340 359 8 336 337 333 341 40 34 39 44 23 20 35 41 39 39 39 48 46 45 44 46 54 55
256 278 289 296 325 255 345 325 338 326 327 328 319 344 342 340 339 334 9 12 357 358 358 347 328 59 41 33 43 59 34 34 48 54 48 40 40 46 51 52 51 48 43 41
218 251 284 288 306 293 278 24 346 342 320 332 348 332 324 323 318 301 302 4 330 339 332 302 29 61 53 46 50 57 54 50 51 56 52 48 48 50 50 49 48 48 44 61
198 198 244 282 297 292 327 327 345 329 299 3 341 331 327 329 307 302 320 311 298 307 305 293 65 63 57 57 65 69 63 61 57 56 54 49 47 46 45 40 36 44 42 48
188 216 232 239 245 264 274 357 344 317 327 332 338 333 326 312 301 307 310 319 307 302 299 71 74 68 60 65 74 74 68 61 61 62 62 60 58 53 48 44 40 44 48 49
251 275 279 279 284 280 358 353 355 320 334 335 330 325 319 313 304 303 304 305 301 291 298 77 73 66 67 75 81 78 69 65 66 66 61 52 46 37 36 42 47 41 40 44
279 227 266 277 276 320 343 356 351 344 336 335 324 322 317 308 303 298 299 296 292 1 76 72 80 81 73 73 76 77 72 73 70 69 64 64 59 55 45 37 34 27 29 33
296 317 304 308 289 310 346 346 343 343 341 326 318 312 312 317 325 317 299 296 55 71 73 81 82 83 79 75 76 78 79 76 76 75 77 68 59 54 55 60 46 40 28 32
276 311 268 277 288 345 333 333 342 341 333 320 323 328 326 336 329 335 329 80 81 73 73 80 83 81 80 78 77 73 69 69 75 74 82 86 93 92 79 63 57 61 60 58
222 231 270 315 357 321 312 331 343 341 327 328 332 333 330 350 342 347 65 67 70 84 88 82 79 77 72 68 63 61 50 55 69 67 54 46 48 42 55 96 90 74 75 67